Time,TemperatureF,DewpointF,PressureIn,WindDirection,WindDirectionDegrees,WindSpeedMPH,WindSpeedGustMPH,Humidity,HourlyPrecipIn,Conditions,Clouds,dailyrainin,SoftwareType,DateUTC
2013-08-01 00:22:00,63.0,62.0,29.84,South,179,0.0,-999.0,97,-99.99,,,-99.99,,2013-08-01 04:22:00,
2013-08-01 00:33:00,63.0,62.0,29.83,South,179,1.0,-999.0,97,-99.99,,,-99.99,,2013-08-01 04:33:00,
2013-08-01 00:43:00,63.0,62.0,29.83,South,179,0.0,-999.0,97,-99.99,,,-99.99,,2013-08-01 04:43:00,
2013-08-01 00:52:00,63.0,62.0,29.83,South,179,0.0,-999.0,97,-99.99,,,-99.99,,2013-08-01 04:52:00,
2013-08-01 01:13:00,63.0,62.0,29.84,South,179,0.0,-999.0,97,-99.99,,,-99.99,,2013-08-01 05:13:00,
2013-08-01 01:23:00,63.0,62.0,29.83,South,179,0.0,-999.0,97,-99.99,,,-99.99,,2013-08-01 05:23:00,
2013-08-01 01:33:00,63.0,62.0,29.83,South,179,1.0,-999.0,97,-99.99,,,-99.99,,2013-08-01 05:33:00,
2013-08-01 01:43:00,63.0,62.0,29.83,NW,325,4.0,-999.0,97,-99.99,,,-99.99,,2013-08-01 05:43:00,
2013-08-01 01:53:00,63.0,62.0,29.83,NW,325,4.0,-999.0,97,-99.99,,,-99.99,,2013-08-01 05:53:00,
2013-08-01 02:02:00,63.0,62.0,29.83,NW,325,4.0,-999.0,97,-99.99,,,-99.99,,2013-08-01 06:02:00,
2013-08-01 02:23:00,63.0,62.0,29.84,North,355,9.0,-999.0,97,-99.99,,,-99.99,,2013-08-01 06:23:00,
2013-08-01 02:33:00,63.0,62.0,29.84,North,355,9.0,-999.0,97,-99.99,,,-99.99,,2013-08-01 06:33:00,
2013-08-01 02:43:00,62.0,58.0,29.83,NNE,19,5.0,-999.0,88,-99.99,,,-99.99,,2013-08-01 06:43:00,
2013-08-01 02:52:00,62.0,58.0,29.83,NNE,19,5.0,-999.0,88,-99.99,,,-99.99,,2013-08-01 06:52:00,
2013-08-01 03:03:00,62.0,59.0,29.83,NNE,25,0.0,-999.0,89,-99.99,,,-99.99,,2013-08-01 07:03:00,
2013-08-01 03:12:00,62.0,59.0,29.83,NNE,25,0.0,-999.0,89,-99.99,,,-99.99,,2013-08-01 07:12:00,
2013-08-01 03:23:00,62.0,59.0,29.83,NNE,25,0.0,-999.0,89,-99.99,,,-99.99,,2013-08-01 07:23:00,
2013-08-01 03:32:00,62.0,59.0,29.82,NNE,25,0.0,-999.0,89,-99.99,,,-99.99,,2013-08-01 07:32:00,
2013-08-01 03:43:00,62.0,59.0,29.83,NNE,25,0.0,-999.0,90,-99.99,,,-99.99,,2013-08-01 07:43:00,
2013-08-01 03:53:00,62.0,59.0,29.83,NNE,25,0.0,-999.0,90,-99.99,,,-99.99,,2013-08-01 07:53:00,
2013-08-01 04:07:00,62.0,59.0,29.81,NNE,25,0.0,-999.0,91,-99.99,,,-99.99,,2013-08-01 08:07:00,
2013-08-01 04:16:00,62.0,59.0,29.81,NNE,25,0.0,-999.0,91,-99.99,,,-99.99,,2013-08-01 08:16:00,
2013-08-01 04:27:00,61.0,59.0,29.81,SE,126,0.0,-999.0,92,-99.99,,,-99.99,,2013-08-01 08:27:00,
2013-08-01 04:39:00,60.0,58.0,29.81,South,180,1.0,-999.0,92,-99.99,,,-99.99,,2013-08-01 08:39:00,
2013-08-01 04:46:00,60.0,58.0,29.81,South,175,1.0,-999.0,93,-99.99,,,-99.99,,2013-08-01 08:46:00,
2013-08-01 05:18:00,60.0,58.0,29.81,South,182,0.0,-999.0,92,-99.99,,,-99.99,,2013-08-01 09:18:00,
2013-08-01 05:45:00,60.0,58.0,29.81,SW,225,0.0,-999.0,93,-99.99,,,-99.99,,2013-08-01 09:45:00,
2013-08-01 06:16:00,60.0,59.0,29.82,SW,225,0.0,-999.0,95,-99.99,,,-99.99,,2013-08-01 10:16:00,
2013-08-01 06:54:00,59.0,58.0,29.84,SW,225,0.0,-999.0,96,-99.99,,,-99.99,,2013-08-01 10:54:00,
2013-08-01 07:35:00,58.0,57.0,29.84,SW,225,0.0,-999.0,97,-99.99,,,-99.99,,2013-08-01 11:35:00,
2013-08-01 07:48:00,59.0,58.0,29.84,SW,225,0.0,-999.0,97,-99.99,,,-99.99,,2013-08-01 11:48:00,
2013-08-01 08:01:00,59.0,58.0,29.84,SW,225,0.0,-999.0,97,-99.99,,,-99.99,,2013-08-01 12:01:00,
2013-08-01 08:21:00,60.0,59.0,29.84,WSW,252,1.0,-999.0,97,-99.99,,,-99.99,,2013-08-01 12:21:00,
2013-08-01 08:34:00,60.0,59.0,29.84,NW,315,1.0,-999.0,97,-99.99,,,-99.99,,2013-08-01 12:34:00,
2013-08-01 08:48:00,61.0,60.0,29.84,WNW,300,2.0,-999.0,97,-99.99,,,-99.99,,2013-08-01 12:48:00,
2013-08-01 09:33:00,61.0,60.0,29.84,WSW,257,4.0,-999.0,97,-99.99,,,-99.99,,2013-08-01 13:33:00,
2013-08-01 10:18:00,62.0,61.0,29.84,WSW,240,3.0,-999.0,96,-99.99,,,-99.99,,2013-08-01 14:18:00,
2013-08-01 11:22:00,67.0,63.0,29.83,WSW,244,4.0,-999.0,88,-99.99,,,-99.99,,2013-08-01 15:22:00,
2013-08-01 11:31:00,68.0,63.0,29.83,WNW,302,5.0,-999.0,85,-99.99,,,-99.99,,2013-08-01 15:31:00,
2013-08-01 11:39:00,68.0,63.0,29.83,WNW,302,5.0,-999.0,85,-99.99,,,-99.99,,2013-08-01 15:39:00,
2013-08-01 11:50:00,70.0,63.0,29.83,WNW,290,3.0,-999.0,79,-99.99,,,-99.99,,2013-08-01 15:50:00,
2013-08-01 11:59:00,70.0,63.0,29.83,WNW,290,3.0,-999.0,79,-99.99,,,-99.99,,2013-08-01 15:59:00,
2013-08-01 12:09:00,71.0,63.0,29.83,NNW,328,5.0,-999.0,77,-99.99,,,-99.99,,2013-08-01 16:09:00,
2013-08-01 12:20:00,72.0,64.0,29.83,SW,215,4.0,-999.0,77,-99.99,,,-99.99,,2013-08-01 16:20:00,
2013-08-01 12:30:00,72.0,64.0,29.83,SW,215,4.0,-999.0,77,-99.99,,,-99.99,,2013-08-01 16:30:00,
2013-08-01 12:43:00,73.0,63.0,29.83,WSW,243,3.0,-999.0,70,-99.99,,,-99.99,,2013-08-01 16:43:00,
2013-08-01 12:49:00,74.0,63.0,29.83,WSW,241,3.0,-999.0,68,-99.99,,,-99.99,,2013-08-01 16:49:00,
2013-08-01 13:21:00,73.0,60.0,29.83,NW,304,4.0,-999.0,63,-99.99,,,-99.99,,2013-08-01 17:21:00,
2013-08-01 13:45:00,74.0,61.0,29.83,NNW,327,3.0,-999.0,63,-99.99,,,-99.99,,2013-08-01 17:45:00,
2013-08-01 14:02:00,74.0,61.0,29.83,NNW,327,3.0,-999.0,63,-99.99,,,-99.99,,2013-08-01 18:02:00,
2013-08-01 14:16:00,75.0,60.0,29.82,WSW,254,5.0,-999.0,59,-99.99,,,-99.99,,2013-08-01 18:16:00,
2013-08-01 14:53:00,75.0,56.0,29.81,NW,325,7.0,-999.0,51,-99.99,,,-99.99,,2013-08-01 18:53:00,
2013-08-01 16:00:00,77.0,57.0,29.80,NW,304,7.0,-999.0,50,-99.99,,,-99.99,,2013-08-01 20:00:00,
2013-08-01 16:14:00,78.0,57.0,29.80,WNW,283,6.0,-999.0,48,-99.99,,,-99.99,,2013-08-01 20:14:00,
2013-08-01 16:28:00,78.0,56.0,29.80,SW,217,6.0,-999.0,46,-99.99,,,-99.99,,2013-08-01 20:28:00,
2013-08-01 16:40:00,78.0,56.0,29.80,WNW,300,5.0,-999.0,46,-99.99,,,-99.99,,2013-08-01 20:40:00,
2013-08-01 16:48:00,77.0,57.0,29.80,NW,313,6.0,-999.0,50,-99.99,,,-99.99,,2013-08-01 20:48:00,
2013-08-01 16:55:00,77.0,57.0,29.80,NW,313,6.0,-999.0,50,-99.99,,,-99.99,,2013-08-01 20:55:00,
2013-08-01 17:04:00,78.0,57.0,29.80,West,262,5.0,-999.0,49,-99.99,,,-99.99,,2013-08-01 21:04:00,
2013-08-01 17:34:00,78.0,56.0,29.80,SW,235,6.0,-999.0,46,-99.99,,,-99.99,,2013-08-01 21:34:00,
2013-08-01 17:53:00,77.0,57.0,29.80,SW,236,5.0,-999.0,51,-99.99,,,-99.99,,2013-08-01 21:53:00,
2013-08-01 18:09:00,77.0,57.0,29.80,SW,236,5.0,-999.0,51,-99.99,,,-99.99,,2013-08-01 22:09:00,
2013-08-01 18:23:00,75.0,57.0,29.80,SW,236,3.0,-999.0,54,-99.99,,,-99.99,,2013-08-01 22:23:00,
2013-08-01 18:35:00,77.0,57.0,29.80,NW,323,3.0,-999.0,51,-99.99,,,-99.99,,2013-08-01 22:35:00,
2013-08-01 18:46:00,77.0,57.0,29.80,WSW,244,5.0,-999.0,50,-99.99,,,-99.99,,2013-08-01 22:46:00,
2013-08-01 18:55:00,77.0,57.0,29.80,WSW,244,5.0,-999.0,50,-99.99,,,-99.99,,2013-08-01 22:55:00,
2013-08-01 19:10:00,77.0,56.0,29.80,WSW,237,6.0,-999.0,49,-99.99,,,-99.99,,2013-08-01 23:10:00,
2013-08-01 19:25:00,77.0,56.0,29.80,SW,234,3.0,-999.0,49,-99.99,,,-99.99,,2013-08-01 23:25:00,
2013-08-01 19:33:00,77.0,56.0,29.80,West,267,4.0,-999.0,48,-99.99,,,-99.99,,2013-08-01 23:33:00,
2013-08-01 19:48:00,76.0,57.0,29.80,NW,304,3.0,-999.0,52,-99.99,,,-99.99,,2013-08-01 23:48:00,
2013-08-01 19:57:00,76.0,57.0,29.80,NW,304,3.0,-999.0,52,-99.99,,,-99.99,,2013-08-01 23:57:00,
2013-08-01 20:09:00,75.0,57.0,29.80,West,269,2.0,-999.0,53,-99.99,,,-99.99,,2013-08-02 00:09:00,
2013-08-01 20:29:00,74.0,56.0,29.80,WSW,251,3.0,-999.0,54,-99.99,,,-99.99,,2013-08-02 00:29:00,
2013-08-01 20:49:00,73.0,57.0,29.80,WSW,242,2.0,-999.0,57,-99.99,,,-99.99,,2013-08-02 00:49:00,
2013-08-01 20:56:00,73.0,57.0,29.80,WSW,242,2.0,-999.0,57,-99.99,,,-99.99,,2013-08-02 00:56:00,
2013-08-01 21:05:00,72.0,57.0,29.81,WSW,249,2.0,-999.0,59,-99.99,,,-99.99,,2013-08-02 01:05:00,
2013-08-01 21:16:00,71.0,57.0,29.80,WSW,242,1.0,-999.0,61,-99.99,,,-99.99,,2013-08-02 01:16:00,
2013-08-01 21:29:00,71.0,57.0,29.80,WSW,242,1.0,-999.0,61,-99.99,,,-99.99,,2013-08-02 01:29:00,
2013-08-01 21:56:00,69.0,57.0,29.82,NW,312,2.0,-999.0,65,-99.99,,,-99.99,,2013-08-02 01:56:00,
2013-08-01 22:09:00,68.0,57.0,29.82,NW,311,0.0,-999.0,67,-99.99,,,-99.99,,2013-08-02 02:09:00,
2013-08-01 22:17:00,68.0,57.0,29.82,NW,311,0.0,-999.0,67,-99.99,,,-99.99,,2013-08-02 02:17:00,
2013-08-01 22:28:00,67.0,56.0,29.82,WNW,290,0.0,-999.0,69,-99.99,,,-99.99,,2013-08-02 02:28:00,
2013-08-01 22:35:00,67.0,56.0,29.83,WSW,242,2.0,-999.0,69,-99.99,,,-99.99,,2013-08-02 02:35:00,
2013-08-01 22:45:00,67.0,56.0,29.83,WSW,242,2.0,-999.0,69,-99.99,,,-99.99,,2013-08-02 02:45:00,
2013-08-01 22:54:00,66.0,56.0,29.83,WSW,256,0.0,-999.0,70,-99.99,,,-99.99,,2013-08-02 02:54:00,
2013-08-01 23:13:00,65.0,55.0,29.84,WSW,240,1.0,-999.0,70,-99.99,,,-99.99,,2013-08-02 03:13:00,
2013-08-01 23:38:00,65.0,56.0,29.84,SW,236,3.0,-999.0,73,-99.99,,,-99.99,,2013-08-02 03:38:00,
2013-08-01 23:48:00,64.0,55.0,29.84,WSW,240,3.0,-999.0,73,-99.99,,,-99.99,,2013-08-02 03:48:00,